Location: Newark
(46.9000°N, 28.3500°E)
Time: 13:05:17
(UTC+00:00)

Courier 1B - Pass Details

Date: 26 August 2019
Orbit: 962 x 1209 km, 28.3° (Epoch: 22 September)

Event Time Altitude Azimuth Distance (km) Brightness Sun altitude
Rises 17:35:36 0° 243° (WSW) 3,747 11.2 -6.8°
Reaches altitude 10° 17:40:21 10° 214° (SW) 2,744 10.0 -7.6°
Maximum altitude 17:42:38 12° 193° (SSW) 2,584 9.6 -7.9°
Drops below altitude 10° 17:44:54 10° 173° (S) 2,707 9.5 -8.3°
Enters shadow 17:48:01 - 151° (SSE) 3,261 9.8 -8.7°
